Weather in Sintang

Indonesia     0°04′28″N   111°28′44″E
temp.,
°C
wind,
m/s
gust,
m/s
humid.,
%
clouds,
%
prec.,
mm/h
press.,
hPa
HPBL,
m
18 april, sun
sun1801:00+23nw1699100 1.9 1011179
04:00+22nw2799100 13.6 1011408
07:00+22ne11100100 26.8 101473
10:00+24nw1190100 0.6 1014379
13:00+26nw2391100 1.5 1012490
16:00+23nne1399100 2.3 1010214
19:00+22nne1199100 2.3 101221
22:00+22ene009998 0.0 101319
19 april, mon
mon1901:00+22s00100100 0.0 101119
04:00+21se00100100 0.0 101119
07:00+23e119777 0.0 1012206
10:00+31s116146 0.0 10121066
13:00+33wsw1346100 0.1 10082167
16:00+28nw117477 0.0 100715
19:00+26nnw117954 0.0 100911
22:00+25nw1184100 0.2 101113
20 april, tue
tue2001:00+23wnw129751 0.5 101050
04:00+22wnw119945 0.1 100940
07:00+24sse0189100 0.1 1012229
10:00+31sse015999 0.0 10111203
13:00+35wnw134388 0.0 10082364
16:00+29nnw1172100 0.0 100712
19:00+26nw268280 0.1 1010173
22:00+22nnw019938 2.6 101223
21 april, wed
wed2101:00+22w1110087 5.8 101137
04:00+22nnw009943 0.4 101118
07:00+23ssw0197100 0.4 1012149
10:00+31s016160 0.0 10121037
13:00+35sw124459 0.0 10082209
16:00+29n2669100 0.0 1007248
19:00+27ese1178100 0.0 100916
22:00+26sse1181100 0.0 101013
22 april, thu
thu2201:00+25nw1186100 0.0 101033
04:00+24nnw119071 0.0 101028
07:00+25wnw0189100 0.0 1011107
10:00+28sw0182100 1.9 1011430
13:00+34w1149100 2.7 10071618
16:00+32nw125899 0.0 1006158
19:00+27ssw0082100 0.1 100911
22:00+25s1192100 1.6 101014